Volver al catálogo

IRIDIUM 33 DEB

ActivoPO
NORAD 35797·DEBRIS·🇺🇸 United States

Lanzado Sep 14, 1997 desde Baikonur Cosmodrome

Loading…

Próximos Pases (próximas 24 horas)

TLE

ActualizadoSource: Space-Track

Época: Sep 14, 2026, 14:09 UTC

1 35797U 97051SF  26257.58969419  .00010260  00000-0  10636-2 0  9993
2 35797  86.3370 202.3919 0006474 273.9899  86.0588 14.89892608914390

Sigue IRIDIUM 33 DEB en tiempo real con AllMySat

Download on the App Store